Time,TemperatureF,DewpointF,PressureIn,WindDirection,WindDirectionDegrees,WindSpeedMPH,WindSpeedGustMPH,Humidity,HourlyPrecipIn,Conditions,Clouds,dailyrainin,SolarRadiationWatts/m^2,SoftwareType,DateUTC
2013-05-19 00:00:00,61.0,54.5,30.24,NE,45,3.0,4.0,79,-99.99,,,0.00,0.00,VWS V14.01,2013-05-19 04:00:00,
2013-05-19 00:01:00,61.0,56.1,30.23,ENE,68,3.0,4.0,84,-99.99,,,0.00,0.00,VWS V14.01,2013-05-19 04:01:00,
2013-05-19 00:02:00,61.0,56.1,30.23,East,90,4.0,4.0,84,-99.99,,,0.00,0.00,VWS V14.01,2013-05-19 04:02:00,
2013-05-19 00:03:00,61.0,56.1,30.23,ENE,68,6.0,6.0,84,-99.99,,,0.00,0.00,VWS V14.01,2013-05-19 04:03:00,
2013-05-19 00:04:00,61.0,56.1,30.23,ENE,68,4.0,6.0,84,-99.99,,,0.00,0.00,VWS V14.01,2013-05-19 04:04:00,
2013-05-19 00:05:00,61.0,54.5,30.24,East,90,3.0,3.0,79,-99.99,,,0.00,0.00,VWS V14.01,2013-05-19 04:05:00,
2013-05-19 00:06:00,61.0,56.1,30.23,ENE,68,5.0,6.0,84,-99.99,,,0.00,0.00,VWS V14.01,2013-05-19 04:06:00,
2013-05-19 00:07:00,61.0,56.1,30.23,East,90,4.0,7.0,84,-99.99,,,0.00,0.00,VWS V14.01,2013-05-19 04:07:00,
2013-05-19 00:08:00,61.0,56.1,30.23,ENE,68,4.0,7.0,84,-99.99,,,0.00,0.00,VWS V14.01,2013-05-19 04:08:00,
2013-05-19 00:09:00,61.0,56.1,30.22,East,90,6.0,8.0,84,-99.99,,,0.00,0.00,VWS V14.01,2013-05-19 04:09:00,
2013-05-19 00:10:00,61.0,54.5,30.24,East,90,4.0,6.0,79,-99.99,,,0.00,0.00,VWS V14.01,2013-05-19 04:10:00,
2013-05-19 00:11:00,61.0,56.1,30.22,ESE,112,4.0,5.0,84,-99.99,,,0.00,0.00,VWS V14.01,2013-05-19 04:11:00,
2013-05-19 00:12:00,61.0,56.1,30.22,ESE,112,7.0,10.0,84,-99.99,,,0.00,0.00,VWS V14.01,2013-05-19 04:12:00,
2013-05-19 00:13:00,60.0,55.2,30.22,ENE,68,4.0,7.0,84,-99.99,,,0.00,0.00,VWS V14.01,2013-05-19 04:13:00,
2013-05-19 00:14:00,60.0,55.2,30.22,ENE,68,3.0,5.0,84,-99.99,,,0.00,0.00,VWS V14.01,2013-05-19 04:14:00,
2013-05-19 00:15:00,61.0,54.8,30.24,ENE,68,3.0,6.0,80,-99.99,,,0.00,0.00,VWS V14.01,2013-05-19 04:15:00,
2013-05-19 00:16:00,61.0,56.5,30.22,ENE,68,5.0,6.0,85,-99.99,,,0.00,0.00,VWS V14.01,2013-05-19 04:16:00,
2013-05-19 00:17:00,60.0,55.2,30.22,NE,45,4.0,7.0,84,-99.99,,,0.00,0.00,VWS V14.01,2013-05-19 04:17:00,
2013-05-19 00:18:00,60.0,55.5,30.22,ESE,112,7.0,7.0,85,-99.99,,,0.00,0.00,VWS V14.01,2013-05-19 04:18:00,
2013-05-19 00:19:00,60.0,55.2,30.22,NE,45,4.0,7.0,84,-99.99,,,0.00,0.00,VWS V14.01,2013-05-19 04:19:00,
2013-05-19 00:20:00,61.0,54.8,30.24,ESE,112,6.0,6.0,80,-99.99,,,0.00,0.00,VWS V14.01,2013-05-19 04:20:00,
2013-05-19 00:21:00,60.0,55.5,30.22,ESE,112,4.0,5.0,85,-99.99,,,0.00,0.00,VWS V14.01,2013-05-19 04:21:00,
2013-05-19 00:22:00,61.0,56.5,30.22,ENE,68,4.0,4.0,85,-99.99,,,0.00,0.00,VWS V14.01,2013-05-19 04:22:00,
2013-05-19 00:23:00,60.0,55.5,30.22,ESE,112,2.0,4.0,85,-99.99,,,0.00,0.00,VWS V14.01,2013-05-19 04:23:00,
2013-05-19 00:24:00,61.0,56.5,30.22,NE,45,2.0,3.0,85,-99.99,,,0.00,0.00,VWS V14.01,2013-05-19 04:24:00,
2013-05-19 00:25:00,61.0,55.1,30.23,ENE,68,6.0,7.0,81,-99.99,,,0.00,0.00,VWS V14.01,2013-05-19 04:25:00,
2013-05-19 00:26:00,61.0,56.5,30.22,NE,45,5.0,7.0,85,-99.99,,,0.00,0.00,VWS V14.01,2013-05-19 04:26:00,
2013-05-19 00:27:00,61.0,56.5,30.22,ENE,68,7.0,7.0,85,-99.99,,,0.00,0.00,VWS V14.01,2013-05-19 04:27:00,
2013-05-19 00:28:00,60.0,55.5,30.22,ESE,112,9.0,12.0,85,-99.99,,,0.00,0.00,VWS V14.01,2013-05-19 04:28:00,
2013-05-19 00:29:00,60.0,55.5,30.22,ENE,68,5.0,12.0,85,-99.99,,,0.00,0.00,VWS V14.01,2013-05-19 04:29:00,
2013-05-19 00:30:00,61.0,55.1,30.23,East,90,4.0,6.0,81,-99.99,,,0.00,0.00,VWS V14.01,2013-05-19 04:30:00,
2013-05-19 00:31:00,60.0,55.5,30.22,ENE,68,3.0,9.0,85,-99.99,,,0.00,0.00,VWS V14.01,2013-05-19 04:31:00,
2013-05-19 00:32:00,60.0,55.5,30.22,East,90,5.0,8.0,85,-99.99,,,0.00,0.00,VWS V14.01,2013-05-19 04:32:00,
2013-05-19 00:33:00,60.0,55.5,30.22,NE,45,4.0,9.0,85,-99.99,,,0.00,0.00,VWS V14.01,2013-05-19 04:33:00,
2013-05-19 00:34:00,60.0,55.5,30.22,ESE,112,8.0,10.0,85,-99.99,,,0.00,0.00,VWS V14.01,2013-05-19 04:34:00,
2013-05-19 00:35:00,61.0,55.5,30.23,ESE,112,9.0,10.0,82,-99.99,,,0.00,0.00,VWS V14.01,2013-05-19 04:35:00,
2013-05-19 00:36:00,60.0,55.5,30.22,SE,135,3.0,7.0,85,-99.99,,,0.00,0.00,VWS V14.01,2013-05-19 04:36:00,
2013-05-19 00:37:00,60.0,55.8,30.22,ESE,112,5.0,8.0,86,-99.99,,,0.00,0.00,VWS V14.01,2013-05-19 04:37:00,
2013-05-19 00:38:00,60.0,55.8,30.22,NE,45,3.0,7.0,86,-99.99,,,0.00,0.00,VWS V14.01,2013-05-19 04:38:00,
2013-05-19 00:39:00,60.0,55.8,30.22,East,90,3.0,5.0,86,-99.99,,,0.00,0.00,VWS V14.01,2013-05-19 04:39:00,
2013-05-19 00:40:00,61.0,55.5,30.23,NE,45,4.0,7.0,82,-99.99,,,0.00,0.00,VWS V14.01,2013-05-19 04:40:00,
2013-05-19 00:41:00,60.0,55.5,30.22,NE,45,5.0,9.0,85,-99.99,,,0.00,0.00,VWS V14.01,2013-05-19 04:41:00,
2013-05-19 00:42:00,60.0,55.5,30.22,ESE,112,6.0,8.0,85,-99.99,,,0.00,0.00,VWS V14.01,2013-05-19 04:42:00,
2013-05-19 00:43:00,60.0,55.5,30.22,East,90,4.0,6.0,85,-99.99,,,0.00,0.00,VWS V14.01,2013-05-19 04:43:00,
2013-05-19 00:44:00,60.0,55.5,30.22,NE,45,6.0,6.0,85,-99.99,,,0.00,0.00,VWS V14.01,2013-05-19 04:44:00,
2013-05-19 00:45:00,61.0,55.8,30.23,ENE,68,9.0,10.0,83,-99.99,,,0.00,0.00,VWS V14.01,2013-05-19 04:45:00,
2013-05-19 00:46:00,60.0,55.5,30.22,ENE,68,8.0,13.0,85,-99.99,,,0.00,0.00,VWS V14.01,2013-05-19 04:46:00,
2013-05-19 00:47:00,60.0,55.5,30.21,ESE,112,3.0,8.0,85,-99.99,,,0.00,0.00,VWS V14.01,2013-05-19 04:47:00,
2013-05-19 00:48:00,60.0,55.5,30.22,East,90,7.0,7.0,85,-99.99,,,0.00,0.00,VWS V14.01,2013-05-19 04:48:00,
2013-05-19 00:49:00,60.0,55.5,30.21,East,90,7.0,9.0,85,-99.99,,,0.00,0.00,VWS V14.01,2013-05-19 04:49:00,
2013-05-19 00:50:00,61.0,55.8,30.23,ENE,68,5.0,11.0,83,-99.99,,,0.00,0.00,VWS V14.01,2013-05-19 04:50:00,
2013-05-19 00:51:00,60.0,55.5,30.21,East,90,7.0,9.0,85,-99.99,,,0.00,0.00,VWS V14.01,2013-05-19 04:51:00,
2013-05-19 00:52:00,61.0,56.5,30.21,East,90,8.0,10.0,85,-99.99,,,0.00,0.00,VWS V14.01,2013-05-19 04:52:00,
2013-05-19 00:53:00,61.0,56.8,30.21,East,90,6.0,11.0,86,-99.99,,,0.00,0.00,VWS V14.01,2013-05-19 04:53:00,
2013-05-19 00:54:00,60.0,55.8,30.21,ESE,112,4.0,10.0,86,-99.99,,,0.00,0.00,VWS V14.01,2013-05-19 04:54:00,
2013-05-19 00:55:00,61.0,55.8,30.23,ENE,68,9.0,13.0,83,-99.99,,,0.00,0.00,VWS V14.01,2013-05-19 04:55:00,
2013-05-19 00:56:00,60.0,55.5,30.21,ESE,112,9.0,11.0,85,-99.99,,,0.00,0.00,VWS V14.01,2013-05-19 04:56:00,
2013-05-19 00:57:00,60.0,55.5,30.21,NE,45,6.0,13.0,85,-99.99,,,0.00,0.00,VWS V14.01,2013-05-19 04:57:00,
2013-05-19 00:58:00,60.0,55.8,30.21,East,90,7.0,11.0,86,-99.99,,,0.00,0.00,VWS V14.01,2013-05-19 04:58:00,
2013-05-19 00:59:00,60.0,55.8,30.21,SE,135,10.0,12.0,86,-99.99,,,0.00,0.00,VWS V14.01,2013-05-19 04:59:00,
2013-05-19 01:00:00,61.0,56.1,30.23,ENE,68,4.0,7.0,84,-99.99,,,0.00,0.00,VWS V14.01,2013-05-19 05:00:00,
2013-05-19 01:01:00,60.0,55.8,30.21,ESE,112,7.0,10.0,86,-99.99,,,0.00,0.00,VWS V14.01,2013-05-19 05:01:00,
2013-05-19 01:02:00,61.0,56.5,30.21,East,90,4.0,8.0,85,-99.99,,,0.00,0.00,VWS V14.01,2013-05-19 05:02:00,
2013-05-19 01:03:00,61.0,56.5,30.21,East,90,6.0,7.0,85,-99.99,,,0.00,0.00,VWS V14.01,2013-05-19 05:03:00,
2013-05-19 01:04:00,61.0,56.5,30.21,ENE,68,2.0,6.0,85,-99.99,,,0.00,0.00,VWS V14.01,2013-05-19 05:04:00,
2013-05-19 01:05:00,61.0,56.1,30.23,ENE,68,4.0,4.0,84,-99.99,,,0.00,0.00,VWS V14.01,2013-05-19 05:05:00,
2013-05-19 01:06:00,61.0,56.5,30.21,ENE,68,4.0,6.0,85,-99.99,,,0.00,0.00,VWS V14.01,2013-05-19 05:06:00,
2013-05-19 01:07:00,61.0,56.5,30.21,NE,45,5.0,5.0,85,-99.99,,,0.00,0.00,VWS V14.01,2013-05-19 05:07:00,
2013-05-19 01:08:00,61.0,56.5,30.21,ENE,68,3.0,6.0,85,-99.99,,,0.00,0.00,VWS V14.01,2013-05-19 05:08:00,
2013-05-19 01:09:00,61.0,56.5,30.20,ENE,68,3.0,4.0,85,-99.99,,,0.00,0.00,VWS V14.01,2013-05-19 05:09:00,
2013-05-19 01:10:00,61.0,56.1,30.23,ENE,68,5.0,5.0,84,-99.99,,,0.00,0.00,VWS V14.01,2013-05-19 05:10:00,
2013-05-19 01:11:00,61.0,56.5,30.20,East,90,4.0,5.0,85,-99.99,,,0.00,0.00,VWS V14.01,2013-05-19 05:11:00,
2013-05-19 01:12:00,61.0,56.5,30.20,ENE,68,3.0,4.0,85,-99.99,,,0.00,0.00,VWS V14.01,2013-05-19 05:12:00,
2013-05-19 01:13:00,61.0,56.5,30.20,ENE,68,2.0,7.0,85,-99.99,,,0.00,0.00,VWS V14.01,2013-05-19 05:13:00,
2013-05-19 01:14:00,61.0,56.5,30.20,ENE,68,4.0,5.0,85,-99.99,,,0.00,0.00,VWS V14.01,2013-05-19 05:14:00,
2013-05-19 01:15:00,61.0,56.1,30.22,East,90,4.0,5.0,84,-99.99,,,0.00,0.00,VWS V14.01,2013-05-19 05:15:00,
2013-05-19 01:16:00,61.0,56.5,30.20,East,90,4.0,6.0,85,-99.99,,,0.00,0.00,VWS V14.01,2013-05-19 05:16:00,
2013-05-19 01:17:00,61.0,56.5,30.20,ESE,112,5.0,9.0,85,-99.99,,,0.00,0.00,VWS V14.01,2013-05-19 05:17:00,
2013-05-19 01:18:00,61.0,56.5,30.20,ENE,68,4.0,6.0,85,-99.99,,,0.00,0.00,VWS V14.01,2013-05-19 05:18:00,
2013-05-19 01:19:00,61.0,56.5,30.20,NE,45,5.0,6.0,85,-99.99,,,0.00,0.00,VWS V14.01,2013-05-19 05:19:00,
2013-05-19 01:20:00,61.0,56.5,30.22,ENE,68,5.0,5.0,85,-99.99,,,0.00,0.00,VWS V14.01,2013-05-19 05:20:00,
2013-05-19 01:21:00,61.0,56.5,30.20,East,90,5.0,5.0,85,-99.99,,,0.00,0.00,VWS V14.01,2013-05-19 05:21:00,
2013-05-19 01:22:00,61.0,56.5,30.20,NE,45,2.0,5.0,85,-99.99,,,0.00,0.00,VWS V14.01,2013-05-19 05:22:00,
2013-05-19 01:23:00,61.0,56.5,30.20,NE,45,3.0,4.0,85,-99.99,,,0.00,0.00,VWS V14.01,2013-05-19 05:23:00,
2013-05-19 01:24:00,61.0,56.5,30.20,NE,45,3.0,4.0,85,-99.99,,,0.00,0.00,VWS V14.01,2013-05-19 05:24:00,
2013-05-19 01:25:00,60.0,55.5,30.22,ESE,112,4.0,4.0,85,-99.99,,,0.00,0.00,VWS V14.01,2013-05-19 05:25:00,
2013-05-19 01:26:00,61.0,56.5,30.20,NNE,22,4.0,5.0,85,-99.99,,,0.00,0.00,VWS V14.01,2013-05-19 05:26:00,
2013-05-19 01:27:00,61.0,56.5,30.20,NE,45,6.0,7.0,85,-99.99,,,0.00,0.00,VWS V14.01,2013-05-19 05:27:00,
2013-05-19 01:28:00,61.0,56.5,30.20,ENE,68,3.0,8.0,85,-99.99,,,0.00,0.00,VWS V14.01,2013-05-19 05:28:00,
2013-05-19 01:29:00,61.0,56.5,30.20,NNE,22,4.0,7.0,85,-99.99,,,0.00,0.00,VWS V14.01,2013-05-19 05:29:00,
2013-05-19 01:30:00,61.0,56.5,30.22,ENE,68,6.0,7.0,85,-99.99,,,0.00,0.00,VWS V14.01,2013-05-19 05:30:00,
2013-05-19 01:31:00,60.0,55.5,30.20,NE,45,4.0,7.0,85,-99.99,,,0.00,0.00,VWS V14.01,2013-05-19 05:31:00,
2013-05-19 01:32:00,60.0,55.5,30.20,NE,45,4.0,6.0,85,-99.99,,,0.00,0.00,VWS V14.01,2013-05-19 05:32:00,
2013-05-19 01:33:00,60.0,55.5,30.20,NE,45,7.0,8.0,85,-99.99,,,0.00,0.00,VWS V14.01,2013-05-19 05:33:00,
2013-05-19 01:34:00,60.0,55.5,30.20,East,90,5.0,7.0,85,-99.99,,,0.00,0.00,VWS V14.01,2013-05-19 05:34:00,
2013-05-19 01:35:00,60.0,55.5,30.22,ENE,68,4.0,9.0,85,-99.99,,,0.00,0.00,VWS V14.01,2013-05-19 05:35:00,
2013-05-19 01:36:00,60.0,55.5,30.20,East,90,3.0,6.0,85,-99.99,,,0.00,0.00,VWS V14.01,2013-05-19 05:36:00,
2013-05-19 01:37:00,60.0,55.8,30.20,ENE,68,4.0,4.0,86,-99.99,,,0.00,0.00,VWS V14.01,2013-05-19 05:37:00,
2013-05-19 01:38:00,60.0,55.8,30.20,NNE,22,5.0,9.0,86,-99.99,,,0.00,0.00,VWS V14.01,2013-05-19 05:38:00,
2013-05-19 01:39:00,60.0,55.8,30.20,NE,45,5.0,8.0,86,-99.99,,,0.00,0.00,VWS V14.01,2013-05-19 05:39:00,
2013-05-19 01:40:00,60.0,55.5,30.22,East,90,3.0,7.0,85,-99.99,,,0.00,0.00,VWS V14.01,2013-05-19 05:40:00,
2013-05-19 01:41:00,60.0,55.8,30.20,NE,45,6.0,9.0,86,-99.99,,,0.00,0.00,VWS V14.01,2013-05-19 05:41:00,
2013-05-19 01:42:00,60.0,55.8,30.20,NNE,22,2.0,6.0,86,-99.99,,,0.00,0.00,VWS V14.01,2013-05-19 05:42:00,
2013-05-19 01:43:00,60.0,55.8,30.20,ENE,68,3.0,6.0,86,-99.99,,,0.00,0.00,VWS V14.01,2013-05-19 05:43:00,
2013-05-19 01:44:00,60.0,55.8,30.20,NE,45,3.0,4.0,86,-99.99,,,0.00,0.00,VWS V14.01,2013-05-19 05:44:00,
2013-05-19 01:45:00,60.0,55.5,30.22,ENE,68,7.0,9.0,85,-99.99,,,0.00,0.00,VWS V14.01,2013-05-19 05:45:00,
2013-05-19 01:46:00,60.0,55.8,30.20,NE,45,5.0,6.0,86,-99.99,,,0.00,0.00,VWS V14.01,2013-05-19 05:46:00,
2013-05-19 01:47:00,60.0,55.8,30.20,NE,45,5.0,7.0,86,-99.99,,,0.00,0.00,VWS V14.01,2013-05-19 05:47:00,
2013-05-19 01:48:00,60.0,55.8,30.20,NNE,22,5.0,7.0,86,-99.99,,,0.00,0.00,VWS V14.01,2013-05-19 05:48:00,
2013-05-19 01:49:00,60.0,55.8,30.20,North,0,3.0,6.0,86,-99.99,,,0.00,0.00,VWS V14.01,2013-05-19 05:49:00,
2013-05-19 01:50:00,60.0,55.5,30.21,ENE,68,8.0,13.0,85,-99.99,,,0.00,0.00,VWS V14.01,2013-05-19 05:50:00,
2013-05-19 01:51:00,60.0,55.8,30.20,NNE,22,5.0,7.0,86,-99.99,,,0.00,0.00,VWS V14.01,2013-05-19 05:51:00,
2013-05-19 01:52:00,60.0,55.8,30.20,NNE,22,2.0,5.0,86,-99.99,,,0.00,0.00,VWS V14.01,2013-05-19 05:52:00,
2013-05-19 01:53:00,60.0,55.8,30.20,NE,45,2.0,4.0,86,-99.99,,,0.00,0.00,VWS V14.01,2013-05-19 05:53:00,
2013-05-19 01:54:00,60.0,56.1,30.20,NE,45,6.0,6.0,87,-99.99,,,0.00,0.00,VWS V14.01,2013-05-19 05:54:00,
2013-05-19 01:55:00,60.0,55.5,30.21,East,90,8.0,9.0,85,-99.99,,,0.00,0.00,VWS V14.01,2013-05-19 05:55:00,
2013-05-19 01:56:00,60.0,56.1,30.20,NE,45,3.0,4.0,87,-99.99,,,0.00,0.00,VWS V14.01,2013-05-19 05:56:00,
2013-05-19 01:57:00,60.0,56.1,30.20,North,0,4.0,4.0,87,-99.99,,,0.00,0.00,VWS V14.01,2013-05-19 05:57:00,
2013-05-19 01:58:00,60.0,56.1,30.20,North,0,4.0,5.0,87,-99.99,,,0.00,0.00,VWS V14.01,2013-05-19 05:58:00,
2013-05-19 01:59:00,60.0,56.1,30.20,NNW,338,5.0,7.0,87,-99.99,,,0.00,0.00,VWS V14.01,2013-05-19 05:59:00,
2013-05-19 02:00:00,61.0,56.5,30.21,East,90,8.0,11.0,85,-99.99,,,0.00,0.00,VWS V14.01,2013-05-19 06:00:00,
2013-05-19 02:01:00,60.0,56.1,30.20,North,0,3.0,4.0,87,-99.99,,,0.00,0.00,VWS V14.01,2013-05-19 06:01:00,
2013-05-19 02:02:00,60.0,56.1,30.20,NNE,22,2.0,3.0,87,-99.99,,,0.00,0.00,VWS V14.01,2013-05-19 06:02:00,
2013-05-19 02:03:00,60.0,56.1,30.20,North,0,4.0,6.0,87,-99.99,,,0.00,0.00,VWS V14.01,2013-05-19 06:03:00,
2013-05-19 02:04:00,60.0,56.1,30.20,NE,45,4.0,5.0,87,-99.99,,,0.00,0.00,VWS V14.01,2013-05-19 06:04:00,
2013-05-19 02:05:00,60.0,55.8,30.21,ENE,68,4.0,10.0,86,-99.99,,,0.00,0.00,VWS V14.01,2013-05-19 06:05:00,
2013-05-19 02:06:00,60.0,56.1,30.20,NNE,22,3.0,4.0,87,-99.99,,,0.00,0.00,VWS V14.01,2013-05-19 06:06:00,
2013-05-19 02:07:00,60.0,56.1,30.20,NNE,22,5.0,7.0,87,-99.99,,,0.00,0.00,VWS V14.01,2013-05-19 06:07:00,
2013-05-19 02:08:00,60.0,56.1,30.21,NNE,22,4.0,6.0,87,-99.99,,,0.00,0.00,VWS V14.01,2013-05-19 06:08:00,
2013-05-19 02:09:00,60.0,56.1,30.20,NW,315,2.0,6.0,87,-99.99,,,0.00,0.00,VWS V14.01,2013-05-19 06:09:00,
2013-05-19 02:10:00,61.0,56.5,30.21,NE,45,3.0,6.0,85,-99.99,,,0.00,0.00,VWS V14.01,2013-05-19 06:10:00,
2013-05-19 02:11:00,60.0,56.1,30.20,NNE,22,4.0,7.0,87,-99.99,,,0.00,0.00,VWS V14.01,2013-05-19 06:11:00,
2013-05-19 02:12:00,60.0,56.1,30.20,NE,45,3.0,6.0,87,-99.99,,,0.00,0.00,VWS V14.01,2013-05-19 06:12:00,
2013-05-19 02:13:00,60.0,56.1,30.20,NE,45,2.0,6.0,87,-99.99,,,0.00,0.00,VWS V14.01,2013-05-19 06:13:00,
2013-05-19 02:14:00,60.0,56.1,30.20,North,0,4.0,4.0,87,-99.99,,,0.00,0.00,VWS V14.01,2013-05-19 06:14:00,
2013-05-19 02:15:00,61.0,56.5,30.20,ESE,112,4.0,5.0,85,-99.99,,,0.00,0.00,VWS V14.01,2013-05-19 06:15:00,
2013-05-19 02:16:00,60.0,56.1,30.20,NE,45,4.0,6.0,87,-99.99,,,0.00,0.00,VWS V14.01,2013-05-19 06:16:00,
2013-05-19 02:17:00,60.0,56.1,30.20,NNE,22,4.0,5.0,87,-99.99,,,0.00,0.00,VWS V14.01,2013-05-19 06:17:00,
2013-05-19 02:18:00,60.0,56.1,30.20,NE,45,4.0,7.0,87,-99.99,,,0.00,0.00,VWS V14.01,2013-05-19 06:18:00,
2013-05-19 02:19:00,60.0,56.1,30.20,NNE,22,5.0,5.0,87,-99.99,,,0.00,0.00,VWS V14.01,2013-05-19 06:19:00,
2013-05-19 02:20:00,61.0,56.5,30.20,NE,45,5.0,6.0,85,-99.99,,,0.00,0.00,VWS V14.01,2013-05-19 06:20:00,
2013-05-19 02:21:00,60.0,56.1,30.20,NE,45,6.0,7.0,87,-99.99,,,0.00,0.00,VWS V14.01,2013-05-19 06:21:00,
2013-05-19 02:22:00,60.0,56.1,30.20,ENE,68,4.0,7.0,87,-99.99,,,0.00,0.00,VWS V14.01,2013-05-19 06:22:00,
2013-05-19 02:23:00,60.0,56.1,30.20,NE,45,4.0,5.0,87,-99.99,,,0.00,0.00,VWS V14.01,2013-05-19 06:23:00,
2013-05-19 02:24:00,60.0,56.1,30.20,NE,45,2.0,5.0,87,-99.99,,,0.00,0.00,VWS V14.01,2013-05-19 06:24:00,
2013-05-19 02:25:00,61.0,56.5,30.20,East,90,4.0,5.0,85,-99.99,,,0.00,0.00,VWS V14.01,2013-05-19 06:25:00,
2013-05-19 02:26:00,60.0,56.1,30.20,ESE,112,4.0,6.0,87,-99.99,,,0.00,0.00,VWS V14.01,2013-05-19 06:26:00,
2013-05-19 02:27:00,60.0,56.1,30.20,ENE,68,4.0,5.0,87,-99.99,,,0.00,0.00,VWS V14.01,2013-05-19 06:27:00,
2013-05-19 02:28:00,60.0,56.1,30.19,East,90,4.0,5.0,87,-99.99,,,0.00,0.00,VWS V14.01,2013-05-19 06:28:00,
2013-05-19 02:29:00,60.0,56.1,30.20,ENE,68,5.0,6.0,87,-99.99,,,0.00,0.00,VWS V14.01,2013-05-19 06:29:00,
2013-05-19 02:30:00,61.0,56.5,30.20,NE,45,4.0,5.0,85,-99.99,,,0.00,0.00,VWS V14.01,2013-05-19 06:30:00,
2013-05-19 02:31:00,60.0,56.1,30.19,NE,45,4.0,5.0,87,-99.99,,,0.00,0.00,VWS V14.01,2013-05-19 06:31:00,
2013-05-19 02:32:00,60.0,56.1,30.19,NE,45,5.0,6.0,87,-99.99,,,0.00,0.00,VWS V14.01,2013-05-19 06:32:00,
2013-05-19 02:33:00,60.0,56.1,30.19,North,0,3.0,6.0,87,-99.99,,,0.00,0.00,VWS V14.01,2013-05-19 06:33:00,
2013-05-19 02:34:00,60.0,56.1,30.19,NE,45,7.0,7.0,87,-99.99,,,0.00,0.00,VWS V14.01,2013-05-19 06:34:00,
2013-05-19 02:35:00,60.0,55.5,30.20,NE,45,4.0,7.0,85,-99.99,,,0.00,0.00,VWS V14.01,2013-05-19 06:35:00,
2013-05-19 02:36:00,60.0,56.1,30.20,East,90,5.0,8.0,87,-99.99,,,0.00,0.00,VWS V14.01,2013-05-19 06:36:00,
2013-05-19 02:37:00,60.0,56.1,30.20,ENE,68,4.0,6.0,87,-99.99,,,0.00,0.00,VWS V14.01,2013-05-19 06:37:00,
2013-05-19 02:38:00,60.0,56.1,30.20,ENE,68,2.0,6.0,87,-99.99,,,0.00,0.00,VWS V14.01,2013-05-19 06:38:00,
2013-05-19 02:39:00,60.0,56.1,30.20,NE,45,4.0,5.0,87,-99.99,,,0.00,0.00,VWS V14.01,2013-05-19 06:39:00,
2013-05-19 02:40:00,60.0,55.5,30.20,East,90,3.0,6.0,85,-99.99,,,0.00,0.00,VWS V14.01,2013-05-19 06:40:00,
2013-05-19 02:41:00,60.0,56.1,30.20,NNE,22,2.0,5.0,87,-99.99,,,0.00,0.00,VWS V14.01,2013-05-19 06:41:00,
2013-05-19 02:42:00,60.0,56.1,30.20,NNE,22,2.0,4.0,87,-99.99,,,0.00,0.00,VWS V14.01,2013-05-19 06:42:00,
2013-05-19 02:43:00,60.0,56.1,30.19,NE,45,3.0,4.0,87,-99.99,,,0.00,0.00,VWS V14.01,2013-05-19 06:43:00,
2013-05-19 02:44:00,60.0,56.1,30.20,East,90,2.0,4.0,87,-99.99,,,0.00,0.00,VWS V14.01,2013-05-19 06:44:00,
2013-05-19 02:45:00,60.0,55.8,30.20,NE,45,6.0,6.0,86,-99.99,,,0.00,0.00,VWS V14.01,2013-05-19 06:45:00,
2013-05-19 02:46:00,60.0,56.1,30.20,ENE,68,3.0,4.0,87,-99.99,,,0.00,0.00,VWS V14.01,2013-05-19 06:46:00,
2013-05-19 02:47:00,60.0,56.1,30.19,ENE,68,3.0,3.0,87,-99.99,,,0.00,0.00,VWS V14.01,2013-05-19 06:47:00,
2013-05-19 02:48:00,60.0,56.1,30.19,NE,45,3.0,4.0,87,-99.99,,,0.00,0.00,VWS V14.01,2013-05-19 06:48:00,
2013-05-19 02:49:00,60.0,56.1,30.19,ENE,68,2.0,4.0,87,-99.99,,,0.00,0.00,VWS V14.01,2013-05-19 06:49:00,
2013-05-19 02:50:00,60.0,55.8,30.20,NE,45,5.0,6.0,86,-99.99,,,0.00,0.00,VWS V14.01,2013-05-19 06:50:00,
2013-05-19 02:51:00,60.0,56.1,30.20,ENE,68,5.0,6.0,87,-99.99,,,0.00,0.00,VWS V14.01,2013-05-19 06:51:00,
2013-05-19 02:52:00,60.0,56.1,30.20,NNE,22,3.0,5.0,87,-99.99,,,0.00,0.00,VWS V14.01,2013-05-19 06:52:00,
2013-05-19 02:53:00,60.0,56.1,30.20,ESE,112,3.0,7.0,87,-99.99,,,0.00,0.00,VWS V14.01,2013-05-19 06:53:00,
2013-05-19 02:54:00,60.0,56.1,30.20,NE,45,3.0,5.0,87,-99.99,,,0.00,0.00,VWS V14.01,2013-05-19 06:54:00,
2013-05-19 02:55:00,60.0,55.8,30.20,NNE,22,5.0,5.0,86,-99.99,,,0.00,0.00,VWS V14.01,2013-05-19 06:55:00,
2013-05-19 02:56:00,60.0,56.1,30.20,NE,45,4.0,6.0,87,-99.99,,,0.00,0.00,VWS V14.01,2013-05-19 06:56:00,
2013-05-19 02:57:00,60.0,56.4,30.20,ENE,68,5.0,6.0,88,-99.99,,,0.00,0.00,VWS V14.01,2013-05-19 06:57:00,
2013-05-19 02:58:00,60.0,56.4,30.20,ENE,68,4.0,7.0,88,-99.99,,,0.00,0.00,VWS V14.01,2013-05-19 06:58:00,
2013-05-19 02:59:00,60.0,56.4,30.20,NE,45,4.0,6.0,88,-99.99,,,0.00,0.00,VWS V14.01,2013-05-19 06:59:00,
2013-05-19 03:00:00,60.0,56.1,30.20,NNE,22,3.0,3.0,87,-99.99,,,0.00,0.00,VWS V14.01,2013-05-19 07:00:00,
2013-05-19 03:01:00,60.0,56.4,30.20,NE,45,3.0,6.0,88,-99.99,,,0.00,0.00,VWS V14.01,2013-05-19 07:01:00,
2013-05-19 03:02:00,60.0,56.4,30.20,NE,45,5.0,6.0,88,-99.99,,,0.00,0.00,VWS V14.01,2013-05-19 07:02:00,
2013-05-19 03:03:00,60.0,56.4,30.19,NE,45,4.0,5.0,88,-99.99,,,0.00,0.00,VWS V14.01,2013-05-19 07:03:00,
2013-05-19 03:04:00,60.0,56.4,30.20,NNE,22,1.0,6.0,88,-99.99,,,0.00,0.00,VWS V14.01,2013-05-19 07:04:00,
2013-05-19 03:05:00,60.0,56.1,30.20,North,0,3.0,4.0,87,-99.99,,,0.00,0.00,VWS V14.01,2013-05-19 07:05:00,
2013-05-19 03:06:00,60.0,56.4,30.20,NE,45,4.0,5.0,88,-99.99,,,0.00,0.00,VWS V14.01,2013-05-19 07:06:00,
2013-05-19 03:07:00,60.0,56.4,30.20,NNE,22,3.0,5.0,88,-99.99,,,0.00,0.00,VWS V14.01,2013-05-19 07:07:00,
2013-05-19 03:08:00,60.0,56.4,30.20,NNE,22,4.0,5.0,88,-99.99,,,0.00,0.00,VWS V14.01,2013-05-19 07:08:00,
2013-05-19 03:09:00,60.0,56.4,30.20,ENE,68,5.0,6.0,88,-99.99,,,0.00,0.00,VWS V14.01,2013-05-19 07:09:00,
2013-05-19 03:10:00,60.0,56.1,30.20,NNE,22,3.0,4.0,87,-99.99,,,0.00,0.00,VWS V14.01,2013-05-19 07:10:00,
2013-05-19 03:11:00,60.0,56.4,30.20,NE,45,5.0,6.0,88,-99.99,,,0.00,0.00,VWS V14.01,2013-05-19 07:11:00,
2013-05-19 03:12:00,60.0,56.4,30.19,NE,45,4.0,7.0,88,-99.99,,,0.00,0.00,VWS V14.01,2013-05-19 07:12:00,
2013-05-19 03:13:00,60.0,56.4,30.20,ENE,68,3.0,5.0,88,-99.99,,,0.00,0.00,VWS V14.01,2013-05-19 07:13:00,
2013-05-19 03:14:00,60.0,56.4,30.20,NNE,22,5.0,7.0,88,-99.99,,,0.00,0.00,VWS V14.01,2013-05-19 07:14:00,
2013-05-19 03:15:00,60.0,56.1,30.20,NNE,22,4.0,7.0,87,-99.99,,,0.00,0.00,VWS V14.01,2013-05-19 07:15:00,
2013-05-19 03:16:00,60.0,56.8,30.20,NNE,22,2.0,6.0,89,-99.99,,,0.00,0.00,VWS V14.01,2013-05-19 07:16:00,
2013-05-19 03:17:00,60.0,56.8,30.20,NE,45,2.0,4.0,89,-99.99,,,0.00,0.00,VWS V14.01,2013-05-19 07:17:00,
2013-05-19 03:18:00,60.0,56.8,30.20,NE,45,3.0,6.0,89,-99.99,,,0.00,0.00,VWS V14.01,2013-05-19 07:18:00,
2013-05-19 03:19:00,60.0,56.8,30.20,NNE,22,3.0,5.0,89,-99.99,,,0.00,0.00,VWS V14.01,2013-05-19 07:19:00,
2013-05-19 03:20:00,60.0,56.1,30.20,NE,45,4.0,6.0,87,-99.99,,,0.00,0.00,VWS V14.01,2013-05-19 07:20:00,
2013-05-19 03:21:00,60.0,56.8,30.20,East,90,3.0,7.0,89,-99.99,,,0.00,0.00,VWS V14.01,2013-05-19 07:21:00,
2013-05-19 03:22:00,60.0,56.8,30.20,NE,45,4.0,7.0,89,-99.99,,,0.00,0.00,VWS V14.01,2013-05-19 07:22:00,
2013-05-19 03:23:00,60.0,56.8,30.20,NE,45,4.0,5.0,89,-99.99,,,0.00,0.00,VWS V14.01,2013-05-19 07:23:00,
2013-05-19 03:24:00,60.0,56.8,30.20,NNE,22,3.0,5.0,89,-99.99,,,0.00,0.00,VWS V14.01,2013-05-19 07:24:00,
2013-05-19 03:25:00,60.0,56.1,30.20,NE,45,6.0,7.0,87,-99.99,,,0.00,0.00,VWS V14.01,2013-05-19 07:25:00,
2013-05-19 03:26:00,60.0,56.4,30.20,NE,45,6.0,7.0,88,-99.99,,,0.00,0.00,VWS V14.01,2013-05-19 07:26:00,
2013-05-19 03:27:00,60.0,56.4,30.20,North,0,4.0,8.0,88,-99.99,,,0.00,0.00,VWS V14.01,2013-05-19 07:27:00,
2013-05-19 03:28:00,60.0,56.4,30.20,NNE,22,3.0,5.0,88,-99.99,,,0.00,0.00,VWS V14.01,2013-05-19 07:28:00,
2013-05-19 03:29:00,60.0,56.8,30.20,ENE,68,4.0,5.0,89,-99.99,,,0.00,0.00,VWS V14.01,2013-05-19 07:29:00,
2013-05-19 03:30:00,60.0,56.1,30.20,ESE,112,4.0,6.0,87,-99.99,,,0.00,0.00,VWS V14.01,2013-05-19 07:30:00,
2013-05-19 03:31:00,60.0,56.8,30.20,ENE,68,4.0,5.0,89,-99.99,,,0.00,0.00,VWS V14.01,2013-05-19 07:31:00,
2013-05-19 03:32:00,60.0,56.8,30.20,ENE,68,5.0,7.0,89,-99.99,,,0.00,0.00,VWS V14.01,2013-05-19 07:32:00,
2013-05-19 03:33:00,60.0,56.8,30.20,NE,45,5.0,6.0,89,-99.99,,,0.00,0.00,VWS V14.01,2013-05-19 07:33:00,
2013-05-19 03:34:00,60.0,56.8,30.20,NE,45,6.0,9.0,89,-99.99,,,0.00,0.00,VWS V14.01,2013-05-19 07:34:00,
2013-05-19 03:35:00,60.0,56.1,30.19,NE,45,4.0,5.0,87,-99.99,,,0.00,0.00,VWS V14.01,2013-05-19 07:35:00,
2013-05-19 03:36:00,60.0,56.8,30.20,ENE,68,5.0,9.0,89,-99.99,,,0.00,0.00,VWS V14.01,2013-05-19 07:36:00,
2013-05-19 03:37:00,60.0,56.8,30.19,ENE,68,6.0,8.0,89,-99.99,,,0.00,0.00,VWS V14.01,2013-05-19 07:37:00,
2013-05-19 03:38:00,60.0,56.8,30.19,NE,45,4.0,7.0,89,-99.99,,,0.00,0.00,VWS V14.01,2013-05-19 07:38:00,
2013-05-19 03:39:00,60.0,56.8,30.19,ENE,68,4.0,6.0,89,-99.99,,,0.00,0.00,VWS V14.01,2013-05-19 07:39:00,
2013-05-19 03:40:00,60.0,56.1,30.20,ENE,68,5.0,5.0,87,-99.99,,,0.00,0.00,VWS V14.01,2013-05-19 07:40:00,
2013-05-19 03:41:00,60.0,56.8,30.19,ENE,68,3.0,6.0,89,-99.99,,,0.00,0.00,VWS V14.01,2013-05-19 07:41:00,
2013-05-19 03:43:00,60.0,56.8,30.19,ENE,68,4.0,4.0,89,-99.99,,,0.00,0.00,VWS V14.01,2013-05-19 07:43:00,
2013-05-19 03:44:00,60.0,56.8,30.19,ENE,68,3.0,4.0,89,-99.99,,,0.00,0.00,VWS V14.01,2013-05-19 07:44:00,
2013-05-19 03:45:00,60.0,56.1,30.20,NNE,22,2.0,5.0,87,-99.99,,,0.00,0.00,VWS V14.01,2013-05-19 07:45:00,
2013-05-19 03:46:00,60.0,56.8,30.19,ENE,68,5.0,7.0,89,-99.99,,,0.00,0.00,VWS V14.01,2013-05-19 07:46:00,
2013-05-19 03:47:00,60.0,56.8,30.19,NE,45,3.0,5.0,89,-99.99,,,0.00,0.00,VWS V14.01,2013-05-19 07:47:00,
2013-05-19 03:48:00,60.0,56.8,30.19,ENE,68,4.0,5.0,89,-99.99,,,0.00,0.00,VWS V14.01,2013-05-19 07:48:00,
2013-05-19 03:49:00,60.0,56.8,30.19,ESE,112,2.0,5.0,89,-99.99,,,0.00,0.00,VWS V14.01,2013-05-19 07:49:00,
2013-05-19 03:50:00,60.0,56.1,30.19,NE,45,3.0,4.0,87,-99.99,,,0.00,0.00,VWS V14.01,2013-05-19 07:50:00,
2013-05-19 03:55:00,60.0,56.1,30.20,NE,45,4.0,5.0,87,-99.99,,,0.00,0.00,VWS V14.01,2013-05-19 07:55:00,
2013-05-19 04:00:00,60.0,56.1,30.20,NE,45,4.0,6.0,87,-99.99,,,0.00,0.00,VWS V14.01,2013-05-19 08:00:00,
2013-05-19 04:05:00,60.0,56.4,30.20,NE,45,3.0,6.0,88,-99.99,,,0.00,0.00,VWS V14.01,2013-05-19 08:05:00,
2013-05-19 04:10:00,60.0,56.4,30.20,ENE,68,4.0,5.0,88,-99.99,,,0.00,0.00,VWS V14.01,2013-05-19 08:10:00,
2013-05-19 04:15:00,60.0,56.4,30.20,NE,45,5.0,6.0,88,-99.99,,,0.00,0.00,VWS V14.01,2013-05-19 08:15:00,
2013-05-19 04:20:00,60.0,56.8,30.20,NNE,22,2.0,6.0,89,-99.99,,,0.00,0.00,VWS V14.01,2013-05-19 08:20:00,
2013-05-19 04:25:00,60.0,56.8,30.20,East,90,3.0,7.0,89,-99.99,,,0.00,0.00,VWS V14.01,2013-05-19 08:25:00,
2013-05-19 04:30:00,60.0,56.4,30.20,NE,45,5.0,7.0,88,-99.99,,,0.00,0.00,VWS V14.01,2013-05-19 08:30:00,
2013-05-19 04:35:00,60.0,56.8,30.20,ENE,68,5.0,5.0,89,-99.99,,,0.00,0.00,VWS V14.01,2013-05-19 08:35:00,
2013-05-19 04:40:00,60.0,56.8,30.20,ENE,68,5.0,9.0,89,-99.99,,,0.00,0.00,VWS V14.01,2013-05-19 08:40:00,
2013-05-19 04:45:00,60.0,56.8,30.19,ENE,68,3.0,6.0,89,-99.99,,,0.00,0.00,VWS V14.01,2013-05-19 08:45:00,
2013-05-19 04:53:00,60.0,56.8,30.19,East,90,2.0,3.0,89,-99.99,,,0.00,0.00,VWS V14.01,2013-05-19 08:53:00,
2013-05-19 04:58:00,60.0,56.8,30.20,ENE,68,4.0,4.0,89,-99.99,,,0.00,0.00,VWS V14.01,2013-05-19 08:58:00,
2013-05-19 05:03:00,60.0,56.8,30.20,ENE,68,5.0,5.0,89,-99.99,,,0.00,0.00,VWS V14.01,2013-05-19 09:03:00,
2013-05-19 05:08:00,60.0,56.8,30.20,NE,45,3.0,4.0,89,-99.99,,,0.00,0.00,VWS V14.01,2013-05-19 09:08:00,
2013-05-19 05:13:00,60.0,56.8,30.20,East,90,4.0,4.0,89,-99.99,,,0.00,0.00,VWS V14.01,2013-05-19 09:13:00,
2013-05-19 05:18:00,60.0,56.8,30.20,NE,45,4.0,5.0,89,-99.99,,,0.00,0.00,VWS V14.01,2013-05-19 09:18:00,
2013-05-19 05:23:00,60.0,56.8,30.20,East,90,4.0,4.0,89,-99.99,,,0.00,0.00,VWS V14.01,2013-05-19 09:23:00,
2013-05-19 05:28:00,60.0,56.8,30.20,ENE,68,1.0,3.0,89,-99.99,,,0.00,0.00,VWS V14.01,2013-05-19 09:28:00,
2013-05-19 05:33:00,60.0,56.8,30.20,NE,45,4.0,4.0,89,-99.99,,,0.00,0.00,VWS V14.01,2013-05-19 09:33:00,
2013-05-19 05:38:00,60.0,56.8,30.20,East,90,6.0,7.0,89,-99.99,,,0.00,0.00,VWS V14.01,2013-05-19 09:38:00,
2013-05-19 05:43:00,60.0,56.8,30.20,NE,45,4.0,5.0,89,-99.99,,,0.00,0.00,VWS V14.01,2013-05-19 09:43:00,
2013-05-19 05:48:00,60.0,56.8,30.20,East,90,3.0,3.0,89,-99.99,,,0.00,0.00,VWS V14.01,2013-05-19 09:48:00,
2013-05-19 05:53:00,60.0,56.8,30.20,NE,45,4.0,5.0,89,-99.99,,,0.00,0.00,VWS V14.01,2013-05-19 09:53:00,
2013-05-19 05:58:00,60.0,56.8,30.20,NE,45,3.0,3.0,89,-99.99,,,0.00,0.00,VWS V14.01,2013-05-19 09:58:00,
2013-05-19 06:03:00,60.0,56.8,30.20,NE,45,3.0,4.0,89,-99.99,,,0.00,0.00,VWS V14.01,2013-05-19 10:03:00,
2013-05-19 06:08:00,60.0,56.8,30.20,NE,45,4.0,4.0,89,-99.99,,,0.00,0.00,VWS V14.01,2013-05-19 10:08:00,
2013-05-19 06:13:00,60.0,56.8,30.20,NE,45,4.0,4.0,89,-99.99,,,0.00,10.00,VWS V14.01,2013-05-19 10:13:00,
2013-05-19 06:18:00,60.0,56.8,30.20,East,90,4.0,4.0,89,-99.99,,,0.00,10.00,VWS V14.01,2013-05-19 10:18:00,
2013-05-19 06:23:00,60.0,56.4,30.20,NE,45,5.0,5.0,88,-99.99,,,0.00,10.00,VWS V14.01,2013-05-19 10:23:00,
2013-05-19 06:28:00,60.0,56.8,30.19,NNE,22,3.0,4.0,89,-99.99,,,0.00,20.00,VWS V14.01,2013-05-19 10:28:00,
2013-05-19 06:33:00,60.0,56.4,30.20,NNE,22,3.0,4.0,88,-99.99,,,0.00,20.00,VWS V14.01,2013-05-19 10:33:00,
2013-05-19 06:38:00,60.0,56.4,30.20,NNE,22,4.0,5.0,88,-99.99,,,0.00,20.00,VWS V14.01,2013-05-19 10:38:00,
2013-05-19 06:44:00,60.0,56.4,30.20,ENE,68,7.0,8.0,88,-99.99,,,0.00,10.00,VWS V14.01,2013-05-19 10:44:00,
2013-05-19 06:49:00,60.0,56.4,30.20,ENE,68,3.0,4.0,88,-99.99,,,0.00,10.00,VWS V14.01,2013-05-19 10:49:00,
2013-05-19 06:53:00,60.0,56.4,30.20,NE,45,6.0,7.0,88,-99.99,,,0.00,20.00,VWS V14.01,2013-05-19 10:53:00,
2013-05-19 06:58:00,60.0,56.4,30.20,NE,45,3.0,5.0,88,-99.99,,,0.00,20.00,VWS V14.01,2013-05-19 10:58:00,
2013-05-19 07:03:00,60.0,56.4,30.21,NE,45,4.0,6.0,88,-99.99,,,0.00,20.00,VWS V14.01,2013-05-19 11:03:00,
2013-05-19 07:08:00,60.0,56.4,30.21,East,90,4.0,4.0,88,-99.99,,,0.00,20.00,VWS V14.01,2013-05-19 11:08:00,
2013-05-19 07:13:00,60.0,56.4,30.21,NNE,22,4.0,4.0,88,-99.99,,,0.00,20.00,VWS V14.01,2013-05-19 11:13:00,
2013-05-19 07:18:00,60.0,56.4,30.21,NNE,22,5.0,6.0,88,-99.99,,,0.00,20.00,VWS V14.01,2013-05-19 11:18:00,
2013-05-19 07:24:00,60.0,56.8,30.21,NNE,22,4.0,4.0,89,-99.99,,,0.00,20.00,VWS V14.01,2013-05-19 11:24:00,
2013-05-19 07:29:00,60.0,56.8,30.21,NE,45,5.0,5.0,89,-99.99,,,0.00,30.00,VWS V14.01,2013-05-19 11:29:00,
2013-05-19 07:33:00,60.0,56.8,30.21,NE,45,4.0,5.0,89,-99.99,,,0.00,40.00,VWS V14.01,2013-05-19 11:33:00,
2013-05-19 07:39:00,60.0,56.8,30.22,NNE,22,4.0,6.0,89,-99.99,,,0.00,40.00,VWS V14.01,2013-05-19 11:39:00,
2013-05-19 07:44:00,60.0,56.8,30.22,NE,45,6.0,7.0,89,-99.99,,,0.00,40.00,VWS V14.01,2013-05-19 11:44:00,
2013-05-19 07:49:00,60.0,56.8,30.22,ENE,68,7.0,10.0,89,-99.99,,,0.00,40.00,VWS V14.01,2013-05-19 11:49:00,
2013-05-19 07:54:00,60.0,56.8,30.23,ENE,68,11.0,12.0,89,-99.99,,,0.00,40.00,VWS V14.01,2013-05-19 11:54:00,
2013-05-19 07:59:00,60.0,56.8,30.22,NE,45,4.0,7.0,89,-99.99,,,0.00,40.00,VWS V14.01,2013-05-19 11:59:00,
2013-05-19 08:04:00,60.0,56.8,30.22,ENE,68,4.0,7.0,89,-99.99,,,0.00,40.00,VWS V14.01,2013-05-19 12:04:00,
2013-05-19 08:09:00,60.0,56.8,30.23,NE,45,8.0,10.0,89,-99.99,,,0.00,60.00,VWS V14.01,2013-05-19 12:09:00,
2013-05-19 08:14:00,60.0,56.8,30.22,East,90,4.0,7.0,89,-99.99,,,0.00,60.00,VWS V14.01,2013-05-19 12:14:00,
2013-05-19 08:19:00,60.0,56.8,30.23,ENE,68,6.0,9.0,89,-99.99,,,0.00,60.00,VWS V14.01,2013-05-19 12:19:00,
2013-05-19 08:24:00,60.0,56.8,30.23,NE,45,4.0,6.0,89,-99.99,,,0.00,60.00,VWS V14.01,2013-05-19 12:24:00,
2013-05-19 08:29:00,60.0,56.4,30.23,East,90,10.0,12.0,88,-99.99,,,0.00,60.00,VWS V14.01,2013-05-19 12:29:00,
2013-05-19 08:34:00,61.0,57.7,30.23,NE,45,7.0,8.0,89,-99.99,,,0.00,60.00,VWS V14.01,2013-05-19 12:34:00,
2013-05-19 08:39:00,61.0,57.4,30.23,NE,45,5.0,7.0,88,-99.99,,,0.00,60.00,VWS V14.01,2013-05-19 12:39:00,
2013-05-19 08:44:00,61.0,57.7,30.23,NE,45,7.0,8.0,89,-99.99,,,0.00,70.00,VWS V14.01,2013-05-19 12:44:00,
2013-05-19 08:49:00,61.0,57.4,30.23,ENE,68,4.0,6.0,88,-99.99,,,0.00,80.00,VWS V14.01,2013-05-19 12:49:00,
2013-05-19 08:54:00,61.0,57.4,30.23,ESE,112,5.0,6.0,88,-99.99,,,0.00,80.00,VWS V14.01,2013-05-19 12:54:00,
2013-05-19 08:59:00,61.0,57.4,30.23,ENE,68,4.0,5.0,88,-99.99,,,0.00,90.00,VWS V14.01,2013-05-19 12:59:00,
2013-05-19 09:04:00,61.0,57.1,30.23,North,0,4.0,6.0,87,-99.99,,,0.00,110.00,VWS V14.01,2013-05-19 13:04:00,
2013-05-19 09:09:00,61.0,57.1,30.23,East,90,4.0,5.0,87,-99.99,,,0.00,100.00,VWS V14.01,2013-05-19 13:09:00,
2013-05-19 09:14:00,62.0,58.1,30.23,ENE,68,4.0,5.0,87,-99.99,,,0.00,120.00,VWS V14.01,2013-05-19 13:14:00,
2013-05-19 09:19:00,61.0,57.1,30.23,ESE,112,7.0,14.0,87,-99.99,,,0.00,170.00,VWS V14.01,2013-05-19 13:19:00,
2013-05-19 09:24:00,62.0,58.1,30.23,ESE,112,5.0,7.0,87,-99.99,,,0.00,140.00,VWS V14.01,2013-05-19 13:24:00,
2013-05-19 09:29:00,62.0,57.8,30.23,East,90,4.0,7.0,86,-99.99,,,0.00,110.00,VWS V14.01,2013-05-19 13:29:00,
2013-05-19 09:34:00,62.0,57.8,30.23,NE,45,8.0,9.0,86,-99.99,,,0.00,100.00,VWS V14.01,2013-05-19 13:34:00,
2013-05-19 09:39:00,62.0,57.8,30.23,ENE,68,4.0,4.0,86,-99.99,,,0.00,110.00,VWS V14.01,2013-05-19 13:39:00,
2013-05-19 09:44:00,62.0,57.8,30.23,ENE,68,6.0,7.0,86,-99.99,,,0.00,100.00,VWS V14.01,2013-05-19 13:44:00,
2013-05-19 09:49:00,62.0,57.8,30.23,NE,45,2.0,5.0,86,-99.99,,,0.00,90.00,VWS V14.01,2013-05-19 13:49:00,
2013-05-19 09:54:00,62.0,57.8,30.23,NE,45,7.0,8.0,86,-99.99,,,0.00,90.00,VWS V14.01,2013-05-19 13:54:00,
2013-05-19 09:59:00,62.0,57.8,30.23,ENE,68,5.0,5.0,86,-99.99,,,0.00,140.00,VWS V14.01,2013-05-19 13:59:00,
2013-05-19 10:04:00,62.0,57.8,30.23,NE,45,9.0,9.0,86,-99.99,,,0.00,220.00,VWS V14.01,2013-05-19 14:04:00,
2013-05-19 10:09:00,62.0,57.8,30.23,ENE,68,4.0,5.0,86,-99.99,,,0.00,190.00,VWS V14.01,2013-05-19 14:09:00,
2013-05-19 10:14:00,63.0,58.4,30.23,ENE,68,7.0,10.0,85,-99.99,,,0.00,260.00,VWS V14.01,2013-05-19 14:14:00,
2013-05-19 10:19:00,63.0,58.1,30.23,ENE,68,7.0,10.0,84,-99.99,,,0.00,270.00,VWS V14.01,2013-05-19 14:19:00,
2013-05-19 10:24:00,63.0,58.1,30.23,SE,135,10.0,10.0,84,-99.99,,,0.00,220.00,VWS V14.01,2013-05-19 14:24:00,
2013-05-19 10:29:00,64.0,59.1,30.23,East,90,3.0,6.0,84,-99.99,,,0.00,240.00,VWS V14.01,2013-05-19 14:29:00,
2013-05-19 10:34:00,64.0,58.4,30.23,ESE,112,5.0,8.0,82,-99.99,,,0.00,190.00,VWS V14.01,2013-05-19 14:34:00,
2013-05-19 10:39:00,63.0,57.4,30.23,East,90,6.0,13.0,82,-99.99,,,0.00,180.00,VWS V14.01,2013-05-19 14:39:00,
2013-05-19 10:44:00,63.0,57.8,30.23,ENE,68,9.0,17.0,83,-99.99,,,0.00,170.00,VWS V14.01,2013-05-19 14:44:00,
2013-05-19 10:49:00,63.0,58.1,30.23,ENE,68,4.0,8.0,84,-99.99,,,0.00,190.00,VWS V14.01,2013-05-19 14:49:00,
2013-05-19 10:54:00,63.0,58.1,30.23,ENE,68,5.0,7.0,84,-99.99,,,0.00,200.00,VWS V14.01,2013-05-19 14:54:00,
2013-05-19 10:59:00,63.0,57.8,30.23,ESE,112,8.0,9.0,83,-99.99,,,0.00,370.00,VWS V14.01,2013-05-19 14:59:00,
2013-05-19 11:04:00,64.0,58.7,30.23,East,90,7.0,12.0,83,-99.99,,,0.00,420.00,VWS V14.01,2013-05-19 15:04:00,
2013-05-19 11:09:00,65.0,59.4,30.23,ENE,68,5.0,7.0,82,-99.99,,,0.00,360.00,VWS V14.01,2013-05-19 15:09:00,
2013-05-19 11:14:00,65.0,58.7,30.23,ENE,68,7.0,11.0,80,-99.99,,,0.00,210.00,VWS V14.01,2013-05-19 15:14:00,
2013-05-19 11:19:00,64.0,58.1,30.23,SE,135,11.0,15.0,81,-99.99,,,0.00,180.00,VWS V14.01,2013-05-19 15:19:00,
2013-05-19 11:24:00,64.0,58.4,30.23,NE,45,5.0,11.0,82,-99.99,,,0.00,200.00,VWS V14.01,2013-05-19 15:24:00,
2013-05-19 11:29:00,64.0,58.4,30.22,ESE,112,8.0,8.0,82,-99.99,,,0.00,170.00,VWS V14.01,2013-05-19 15:29:00,
2013-05-19 11:34:00,64.0,58.4,30.23,ESE,112,7.0,9.0,82,-99.99,,,0.00,150.00,VWS V14.01,2013-05-19 15:34:00,
2013-05-19 11:39:00,64.0,59.1,30.22,ESE,112,6.0,7.0,84,-99.99,,,0.00,150.00,VWS V14.01,2013-05-19 15:39:00,
2013-05-19 11:44:00,64.0,58.7,30.22,ENE,68,7.0,10.0,83,-99.99,,,0.00,170.00,VWS V14.01,2013-05-19 15:44:00,
2013-05-19 11:49:00,64.0,58.7,30.22,ENE,68,7.0,7.0,83,-99.99,,,0.00,180.00,VWS V14.01,2013-05-19 15:49:00,
2013-05-19 11:54:00,64.0,58.7,30.22,ENE,68,5.0,6.0,83,-99.99,,,0.00,170.00,VWS V14.01,2013-05-19 15:54:00,
2013-05-19 11:59:00,64.0,58.7,30.22,SE,135,10.0,10.0,83,-99.99,,,0.00,160.00,VWS V14.01,2013-05-19 15:59:00,
2013-05-19 12:04:00,64.0,59.1,30.22,NE,45,4.0,8.0,84,-99.99,,,0.00,180.00,VWS V14.01,2013-05-19 16:04:00,
2013-05-19 12:09:00,64.0,58.7,30.21,East,90,8.0,10.0,83,-99.99,,,0.00,180.00,VWS V14.01,2013-05-19 16:09:00,
2013-05-19 12:14:00,64.0,58.7,30.21,NE,45,9.0,11.0,83,-99.99,,,0.00,160.00,VWS V14.01,2013-05-19 16:14:00,
2013-05-19 12:19:00,64.0,58.7,30.21,ENE,68,7.0,14.0,83,-99.99,,,0.00,150.00,VWS V14.01,2013-05-19 16:19:00,
2013-05-19 12:24:00,64.0,58.7,30.20,East,90,8.0,10.0,83,-99.99,,,0.00,180.00,VWS V14.01,2013-05-19 16:24:00,
2013-05-19 12:29:00,64.0,59.1,30.20,East,90,7.0,10.0,84,-99.99,,,0.00,180.00,VWS V14.01,2013-05-19 16:29:00,
2013-05-19 12:34:00,65.0,59.7,30.20,ENE,68,7.0,10.0,83,-99.99,,,0.00,170.00,VWS V14.01,2013-05-19 16:34:00,
2013-05-19 12:39:00,64.0,58.7,30.20,East,90,6.0,9.0,83,-99.99,,,0.00,220.00,VWS V14.01,2013-05-19 16:39:00,
2013-05-19 12:44:00,65.0,59.7,30.20,ESE,112,4.0,7.0,83,-99.99,,,0.00,250.00,VWS V14.01,2013-05-19 16:44:00,
2013-05-19 12:49:00,65.0,59.7,30.20,ESE,112,6.0,7.0,83,-99.99,,,0.00,240.00,VWS V14.01,2013-05-19 16:49:00,
2013-05-19 12:54:00,65.0,59.7,30.20,ENE,68,6.0,6.0,83,-99.99,,,0.00,230.00,VWS V14.01,2013-05-19 16:54:00,
2013-05-19 12:59:00,65.0,59.4,30.20,ENE,68,7.0,12.0,82,-99.99,,,0.00,280.00,VWS V14.01,2013-05-19 16:59:00,
2013-05-19 13:04:00,65.0,59.4,30.20,East,90,3.0,6.0,82,-99.99,,,0.00,260.00,VWS V14.01,2013-05-19 17:04:00,
2013-05-19 13:09:00,65.0,59.4,30.20,ENE,68,7.0,13.0,82,-99.99,,,0.00,250.00,VWS V14.01,2013-05-19 17:09:00,
2013-05-19 13:14:00,65.0,59.4,30.20,NE,45,10.0,10.0,82,-99.99,,,0.00,200.00,VWS V14.01,2013-05-19 17:14:00,
2013-05-19 13:19:00,64.0,58.7,30.20,NE,45,4.0,7.0,83,-99.99,,,0.00,180.00,VWS V14.01,2013-05-19 17:19:00,
2013-05-19 13:24:00,64.0,59.1,30.20,NE,45,6.0,8.0,84,-99.99,,,0.00,190.00,VWS V14.01,2013-05-19 17:24:00,
2013-05-19 13:29:00,65.0,60.0,30.19,NE,45,5.0,7.0,84,-99.99,,,0.00,170.00,VWS V14.01,2013-05-19 17:29:00,
2013-05-19 13:34:00,65.0,59.7,30.19,NE,45,8.0,9.0,83,-99.99,,,0.00,200.00,VWS V14.01,2013-05-19 17:34:00,
2013-05-19 13:39:00,65.0,60.0,30.19,NE,45,8.0,8.0,84,-99.99,,,0.00,190.00,VWS V14.01,2013-05-19 17:39:00,
2013-05-19 13:44:00,64.0,59.1,30.19,NNE,22,7.0,10.0,84,-99.99,,,0.00,160.00,VWS V14.01,2013-05-19 17:44:00,
2013-05-19 13:49:00,64.0,59.1,30.19,ENE,68,6.0,7.0,84,-99.99,,,0.00,160.00,VWS V14.01,2013-05-19 17:49:00,
2013-05-19 13:54:00,64.0,59.1,30.18,ENE,68,8.0,12.0,84,-99.99,,,0.00,160.00,VWS V14.01,2013-05-19 17:54:00,
2013-05-19 13:59:00,64.0,59.4,30.18,NE,45,6.0,8.0,85,-99.99,,,0.00,150.00,VWS V14.01,2013-05-19 17:59:00,
2013-05-19 14:04:00,64.0,59.4,30.18,East,90,5.0,8.0,85,-99.99,,,0.00,140.00,VWS V14.01,2013-05-19 18:04:00,
2013-05-19 14:09:00,64.0,59.1,30.18,NE,45,6.0,8.0,84,-99.99,,,0.00,150.00,VWS V14.01,2013-05-19 18:09:00,
2013-05-19 14:14:00,65.0,60.4,30.18,NE,45,7.0,8.0,85,-99.99,,,0.00,160.00,VWS V14.01,2013-05-19 18:14:00,
2013-05-19 14:19:00,64.0,59.1,30.17,NE,45,9.0,10.0,84,-99.99,,,0.00,150.00,VWS V14.01,2013-05-19 18:19:00,
2013-05-19 14:24:00,64.0,59.4,30.17,East,90,4.0,11.0,85,-99.99,,,0.00,190.00,VWS V14.01,2013-05-19 18:24:00,
2013-05-19 14:29:00,64.0,59.4,30.17,North,0,5.0,9.0,85,-99.99,,,0.00,230.00,VWS V14.01,2013-05-19 18:29:00,
2013-05-19 14:34:00,65.0,60.0,30.16,NE,45,7.0,10.0,84,-99.99,,,0.00,250.00,VWS V14.01,2013-05-19 18:34:00,
2013-05-19 14:39:00,65.0,60.0,30.16,NNE,22,8.0,10.0,84,-99.99,,,0.00,270.00,VWS V14.01,2013-05-19 18:39:00,
2013-05-19 14:44:00,65.0,60.0,30.16,NNE,22,7.0,12.0,84,-99.99,,,0.00,240.00,VWS V14.01,2013-05-19 18:44:00,
2013-05-19 14:49:00,65.0,60.0,30.16,ESE,112,6.0,11.0,84,-99.99,,,0.00,270.00,VWS V14.01,2013-05-19 18:49:00,
2013-05-19 14:54:00,65.0,60.0,30.16,ENE,68,7.0,15.0,84,-99.99,,,0.00,250.00,VWS V14.01,2013-05-19 18:54:00,
2013-05-19 14:59:00,64.0,59.1,30.16,NE,45,7.0,12.0,84,-99.99,,,0.00,240.00,VWS V14.01,2013-05-19 18:59:00,
2013-05-19 15:04:00,65.0,60.4,30.15,ENE,68,7.0,10.0,85,-99.99,,,0.00,250.00,VWS V14.01,2013-05-19 19:04:00,
2013-05-19 15:09:00,64.0,59.1,30.16,NNE,22,5.0,12.0,84,-99.99,,,0.00,280.00,VWS V14.01,2013-05-19 19:09:00,
2013-05-19 15:14:00,64.0,59.1,30.16,NNE,22,12.0,14.0,84,-99.99,,,0.00,260.00,VWS V14.01,2013-05-19 19:14:00,
2013-05-19 15:19:00,65.0,60.4,30.16,ENE,68,5.0,9.0,85,-99.99,,,0.00,210.00,VWS V14.01,2013-05-19 19:19:00,
2013-05-19 15:24:00,65.0,60.0,30.16,NNE,22,9.0,11.0,84,-99.99,,,0.00,170.00,VWS V14.01,2013-05-19 19:24:00,
2013-05-19 15:29:00,64.0,59.4,30.15,ENE,68,7.0,10.0,85,-99.99,,,0.00,210.00,VWS V14.01,2013-05-19 19:29:00,
2013-05-19 15:34:00,64.0,59.4,30.15,East,90,7.0,12.0,85,-99.99,,,0.00,160.00,VWS V14.01,2013-05-19 19:34:00,
2013-05-19 15:39:00,64.0,59.7,30.15,ENE,68,11.0,12.0,86,-99.99,,,0.00,180.00,VWS V14.01,2013-05-19 19:39:00,
2013-05-19 15:44:00,64.0,59.7,30.15,NE,45,5.0,7.0,86,-99.99,,,0.00,170.00,VWS V14.01,2013-05-19 19:44:00,
2013-05-19 15:49:00,65.0,60.7,30.15,East,90,5.0,8.0,86,-99.99,,,0.00,140.00,VWS V14.01,2013-05-19 19:49:00,
2013-05-19 15:54:00,65.0,60.4,30.15,ENE,68,4.0,9.0,85,-99.99,,,0.00,130.00,VWS V14.01,2013-05-19 19:54:00,
2013-05-19 15:59:00,65.0,60.4,30.15,East,90,5.0,5.0,85,-99.99,,,0.00,180.00,VWS V14.01,2013-05-19 19:59:00,
2013-05-19 16:04:00,64.0,59.4,30.15,NE,45,11.0,11.0,85,-99.99,,,0.00,130.00,VWS V14.01,2013-05-19 20:04:00,
2013-05-19 16:09:00,64.0,59.7,30.15,ENE,68,8.0,8.0,86,-99.99,,,0.00,150.00,VWS V14.01,2013-05-19 20:09:00,
2013-05-19 16:14:00,64.0,59.7,30.15,East,90,5.0,5.0,86,-99.99,,,0.00,120.00,VWS V14.01,2013-05-19 20:14:00,
2013-05-19 16:19:00,64.0,59.7,30.15,ENE,68,7.0,13.0,86,-99.99,,,0.00,120.00,VWS V14.01,2013-05-19 20:19:00,
2013-05-19 16:24:00,64.0,59.7,30.15,ENE,68,5.0,5.0,86,-99.99,,,0.00,80.00,VWS V14.01,2013-05-19 20:24:00,
2013-05-19 16:29:00,64.0,59.7,30.15,ENE,68,6.0,7.0,86,-99.99,,,0.00,70.00,VWS V14.01,2013-05-19 20:29:00,
2013-05-19 16:34:00,64.0,60.1,30.15,NE,45,7.0,10.0,87,-99.99,,,0.00,70.00,VWS V14.01,2013-05-19 20:34:00,
2013-05-19 16:39:00,64.0,60.1,30.15,NE,45,6.0,7.0,87,-99.99,,,0.00,80.00,VWS V14.01,2013-05-19 20:39:00,
2013-05-19 16:44:00,64.0,60.1,30.14,ENE,68,8.0,8.0,87,-99.99,,,0.00,80.00,VWS V14.01,2013-05-19 20:44:00,
2013-05-19 16:49:00,64.0,60.1,30.14,NNE,22,4.0,5.0,87,-99.99,,,0.00,110.00,VWS V14.01,2013-05-19 20:49:00,
2013-05-19 16:54:00,64.0,60.1,30.14,NNE,22,4.0,4.0,87,-99.99,,,0.00,90.00,VWS V14.01,2013-05-19 20:54:00,
2013-05-19 16:59:00,64.0,60.1,30.15,ENE,68,11.0,12.0,87,-99.99,,,0.00,90.00,VWS V14.01,2013-05-19 20:59:00,
2013-05-19 17:04:00,64.0,60.4,30.15,NE,45,4.0,5.0,88,-99.99,,,0.00,70.00,VWS V14.01,2013-05-19 21:04:00,
2013-05-19 17:09:00,64.0,60.1,30.15,East,90,7.0,7.0,87,-99.99,,,0.00,50.00,VWS V14.01,2013-05-19 21:09:00,
2013-05-19 17:14:00,64.0,60.4,30.15,NE,45,4.0,5.0,88,-99.99,,,0.00,40.00,VWS V14.01,2013-05-19 21:14:00,
2013-05-19 17:19:00,64.0,60.4,30.15,ENE,68,6.0,7.0,88,-99.99,,,0.00,50.00,VWS V14.01,2013-05-19 21:19:00,
2013-05-19 17:24:00,64.0,60.4,30.15,NE,45,3.0,4.0,88,-99.99,,,0.00,60.00,VWS V14.01,2013-05-19 21:24:00,
2013-05-19 17:29:00,64.0,60.7,30.15,ENE,68,10.0,10.0,89,-99.99,,,0.00,50.00,VWS V14.01,2013-05-19 21:29:00,
2013-05-19 17:34:00,63.0,59.7,30.15,NE,45,4.0,5.0,89,-99.99,,,0.00,50.00,VWS V14.01,2013-05-19 21:34:00,
2013-05-19 17:39:00,63.0,59.7,30.14,NE,45,4.0,7.0,89,-99.99,,,0.00,50.00,VWS V14.01,2013-05-19 21:39:00,
2013-05-19 17:44:00,63.0,59.7,30.14,East,90,5.0,6.0,89,-99.99,,,0.00,60.00,VWS V14.01,2013-05-19 21:44:00,
2013-05-19 17:49:00,64.0,60.7,30.14,ENE,68,4.0,4.0,89,-99.99,,,0.00,60.00,VWS V14.01,2013-05-19 21:49:00,
2013-05-19 17:54:00,64.0,60.7,30.14,NE,45,5.0,8.0,89,-99.99,,,0.00,60.00,VWS V14.01,2013-05-19 21:54:00,
2013-05-19 17:59:00,64.0,60.7,30.14,ENE,68,6.0,7.0,89,-99.99,,,0.00,40.00,VWS V14.01,2013-05-19 21:59:00,
2013-05-19 18:04:00,63.0,60.0,30.14,East,90,6.0,7.0,90,-99.99,,,0.00,30.00,VWS V14.01,2013-05-19 22:04:00,
2013-05-19 18:09:00,64.0,60.7,30.14,ENE,68,5.0,6.0,89,-99.99,,,0.00,20.00,VWS V14.01,2013-05-19 22:09:00,
2013-05-19 18:14:00,64.0,60.7,30.15,East,90,3.0,4.0,89,-99.99,,,0.00,20.00,VWS V14.01,2013-05-19 22:14:00,
2013-05-19 18:20:00,64.0,61.0,30.15,ESE,112,4.0,7.0,90,-99.99,,,0.00,20.00,VWS V14.01,2013-05-19 22:20:00,
2013-05-19 18:25:00,64.0,61.0,30.15,ENE,68,6.0,6.0,90,-99.99,,,0.00,20.00,VWS V14.01,2013-05-19 22:25:00,
2013-05-19 18:30:00,64.0,61.0,30.15,ENE,68,4.0,5.0,90,-99.99,,,0.00,20.00,VWS V14.01,2013-05-19 22:30:00,
2013-05-19 18:35:00,64.0,60.7,30.14,NE,45,8.0,8.0,89,-99.99,,,0.00,20.00,VWS V14.01,2013-05-19 22:35:00,
2013-05-19 18:40:00,63.0,60.0,30.14,North,0,8.0,9.0,90,-99.99,,,0.00,20.00,VWS V14.01,2013-05-19 22:40:00,
2013-05-19 18:45:00,63.0,60.0,30.14,NE,45,6.0,9.0,90,-99.99,,,0.00,20.00,VWS V14.01,2013-05-19 22:45:00,
2013-05-19 18:50:00,63.0,60.0,30.14,NE,45,7.0,8.0,90,-99.99,,,0.00,20.00,VWS V14.01,2013-05-19 22:50:00,
2013-05-19 18:55:00,63.0,60.0,30.14,NNE,22,6.0,8.0,90,-99.99,,,0.00,10.00,VWS V14.01,2013-05-19 22:55:00,
2013-05-19 19:00:00,63.0,60.0,30.14,NNE,22,4.0,5.0,90,-99.99,,,0.00,10.00,VWS V14.01,2013-05-19 23:00:00,
2013-05-19 19:05:00,63.0,60.0,30.14,NE,45,7.0,8.0,90,-99.99,,,0.00,10.00,VWS V14.01,2013-05-19 23:05:00,
2013-05-19 19:10:00,63.0,60.0,30.14,NE,45,5.0,9.0,90,-99.99,,,0.00,10.00,VWS V14.01,2013-05-19 23:10:00,
2013-05-19 19:15:00,63.0,60.0,30.14,NE,45,5.0,9.0,90,-99.99,,,0.00,10.00,VWS V14.01,2013-05-19 23:15:00,
2013-05-19 19:20:00,63.0,60.0,30.14,NE,45,3.0,4.0,90,-99.99,,,0.00,10.00,VWS V14.01,2013-05-19 23:20:00,
2013-05-19 19:25:00,63.0,60.0,30.14,ENE,68,8.0,10.0,90,-99.99,,,0.00,10.00,VWS V14.01,2013-05-19 23:25:00,
2013-05-19 19:30:00,63.0,60.0,30.15,NNE,22,4.0,6.0,90,-99.99,,,0.00,10.00,VWS V14.01,2013-05-19 23:30:00,
2013-05-19 19:35:00,63.0,60.0,30.14,ENE,68,5.0,5.0,90,-99.99,,,0.00,10.00,VWS V14.01,2013-05-19 23:35:00,
2013-05-19 19:40:00,63.0,60.0,30.14,NE,45,3.0,4.0,90,-99.99,,,0.00,10.00,VWS V14.01,2013-05-19 23:40:00,
2013-05-19 19:45:00,63.0,59.7,30.14,NE,45,3.0,6.0,89,-99.99,,,0.00,10.00,VWS V14.01,2013-05-19 23:45:00,
2013-05-19 19:50:00,63.0,59.7,30.14,NE,45,7.0,8.0,89,-99.99,,,0.00,10.00,VWS V14.01,2013-05-19 23:50:00,
2013-05-19 19:55:00,63.0,60.0,30.14,NE,45,6.0,8.0,90,-99.99,,,0.00,10.00,VWS V14.01,2013-05-19 23:55:00,
2013-05-19 20:00:00,63.0,60.0,30.14,NE,45,3.0,5.0,90,-99.99,,,0.00,0.00,VWS V14.01,2013-05-20 00:00:00,
2013-05-19 20:05:00,63.0,60.0,30.13,NNE,22,3.0,9.0,90,-99.99,,,0.00,0.00,VWS V14.01,2013-05-20 00:05:00,
2013-05-19 20:10:00,63.0,60.0,30.14,ENE,68,5.0,6.0,90,-99.99,,,0.00,0.00,VWS V14.01,2013-05-20 00:10:00,
2013-05-19 20:15:00,63.0,60.0,30.14,ENE,68,7.0,9.0,90,-99.99,,,0.00,0.00,VWS V14.01,2013-05-20 00:15:00,
2013-05-19 20:20:00,63.0,60.0,30.14,ENE,68,7.0,9.0,90,-99.99,,,0.00,0.00,VWS V14.01,2013-05-20 00:20:00,
2013-05-19 20:25:00,63.0,60.0,30.14,NE,45,8.0,11.0,90,-99.99,,,0.00,0.00,VWS V14.01,2013-05-20 00:25:00,
2013-05-19 20:30:00,63.0,60.0,30.13,ENE,68,9.0,9.0,90,-99.99,,,0.00,0.00,VWS V14.01,2013-05-20 00:30:00,
2013-05-19 20:35:00,63.0,60.0,30.14,ENE,68,5.0,7.0,90,-99.99,,,0.00,0.00,VWS V14.01,2013-05-20 00:35:00,
2013-05-19 20:40:00,63.0,60.0,30.14,NE,45,3.0,6.0,90,-99.99,,,0.00,0.00,VWS V14.01,2013-05-20 00:40:00,
2013-05-19 20:45:00,63.0,60.0,30.14,East,90,7.0,8.0,90,-99.99,,,0.00,0.00,VWS V14.01,2013-05-20 00:45:00,
2013-05-19 20:50:00,63.0,60.0,30.14,NE,45,7.0,7.0,90,-99.99,,,0.00,0.00,VWS V14.01,2013-05-20 00:50:00,
2013-05-19 20:55:00,62.0,59.0,30.14,ENE,68,6.0,14.0,90,-99.99,,,0.00,0.00,VWS V14.01,2013-05-20 00:55:00,
2013-05-19 21:00:00,62.0,59.0,30.14,NNE,22,6.0,12.0,90,-99.99,,,0.00,0.00,VWS V14.01,2013-05-20 01:00:00,
2013-05-19 21:05:00,62.0,59.3,30.14,NE,45,6.0,8.0,91,-99.99,,,0.00,0.00,VWS V14.01,2013-05-20 01:05:00,
2013-05-19 21:10:00,62.0,59.3,30.14,ENE,68,5.0,10.0,91,-99.99,,,0.00,0.00,VWS V14.01,2013-05-20 01:10:00,
2013-05-19 21:15:00,62.0,59.3,30.14,NE,45,6.0,8.0,91,-99.99,,,0.00,0.00,VWS V14.01,2013-05-20 01:15:00,
2013-05-19 21:20:00,62.0,59.3,30.14,East,90,4.0,7.0,91,-99.99,,,0.00,0.00,VWS V14.01,2013-05-20 01:20:00,
2013-05-19 21:25:00,62.0,59.3,30.14,NE,45,5.0,8.0,91,-99.99,,,0.00,0.00,VWS V14.01,2013-05-20 01:25:00,
2013-05-19 21:30:00,62.0,59.3,30.14,NE,45,5.0,6.0,91,-99.99,,,0.00,0.00,VWS V14.01,2013-05-20 01:30:00,
2013-05-19 21:35:00,62.0,59.3,30.15,NE,45,6.0,10.0,91,-99.99,,,0.00,0.00,VWS V14.01,2013-05-20 01:35:00,
2013-05-19 21:40:00,62.0,59.3,30.15,ENE,68,3.0,5.0,91,-99.99,,,0.00,0.00,VWS V14.01,2013-05-20 01:40:00,
2013-05-19 21:45:00,62.0,59.7,30.15,ENE,68,4.0,5.0,92,-99.99,,,0.00,0.00,VWS V14.01,2013-05-20 01:45:00,
2013-05-19 21:50:00,62.0,59.3,30.15,ENE,68,4.0,10.0,91,-99.99,,,0.00,0.00,VWS V14.01,2013-05-20 01:50:00,
2013-05-19 21:55:00,62.0,59.3,30.15,ENE,68,5.0,6.0,91,-99.99,,,0.00,0.00,VWS V14.01,2013-05-20 01:55:00,
2013-05-19 22:00:00,62.0,59.3,30.15,NNE,22,3.0,4.0,91,-99.99,,,0.00,0.00,VWS V14.01,2013-05-20 02:00:00,
2013-05-19 22:05:00,62.0,59.3,30.15,NNE,22,5.0,6.0,91,-99.99,,,0.00,0.00,VWS V14.01,2013-05-20 02:05:00,
2013-05-19 22:10:00,62.0,59.3,30.15,NE,45,4.0,7.0,91,-99.99,,,0.00,0.00,VWS V14.01,2013-05-20 02:10:00,
2013-05-19 22:15:00,62.0,59.7,30.16,NE,45,5.0,7.0,92,-99.99,,,0.00,0.00,VWS V14.01,2013-05-20 02:15:00,
2013-05-19 22:20:00,62.0,59.7,30.16,ENE,68,6.0,6.0,92,-99.99,,,0.00,0.00,VWS V14.01,2013-05-20 02:20:00,
2013-05-19 22:25:00,62.0,59.7,30.16,NE,45,5.0,5.0,92,-99.99,,,0.00,0.00,VWS V14.01,2013-05-20 02:25:00,
2013-05-19 22:30:00,62.0,59.7,30.15,NE,45,5.0,8.0,92,-99.99,,,0.00,0.00,VWS V14.01,2013-05-20 02:30:00,
2013-05-19 22:35:00,62.0,59.7,30.15,NE,45,5.0,5.0,92,-99.99,,,0.00,0.00,VWS V14.01,2013-05-20 02:35:00,
2013-05-19 22:40:00,62.0,59.7,30.15,NNE,22,4.0,6.0,92,-99.99,,,0.00,0.00,VWS V14.01,2013-05-20 02:40:00,
2013-05-19 22:45:00,62.0,59.7,30.15,NNE,22,4.0,6.0,92,-99.99,,,0.00,0.00,VWS V14.01,2013-05-20 02:45:00,
2013-05-19 22:50:00,62.0,59.7,30.15,NNE,22,6.0,6.0,92,-99.99,,,0.00,0.00,VWS V14.01,2013-05-20 02:50:00,
2013-05-19 22:55:00,62.0,59.7,30.15,NNE,22,5.0,8.0,92,-99.99,,,0.00,0.00,VWS V14.01,2013-05-20 02:55:00,
2013-05-19 22:56:00,62.0,60.0,30.14,NE,45,6.0,7.0,93,-99.99,,,0.00,0.00,VWS V14.01,2013-05-20 02:56:00,
2013-05-19 22:57:00,62.0,60.0,30.14,NNE,22,6.0,7.0,93,-99.99,,,0.00,0.00,VWS V14.01,2013-05-20 02:57:00,
2013-05-19 22:58:00,61.0,59.0,30.14,NE,45,6.0,10.0,93,-99.99,,,0.00,0.00,VWS V14.01,2013-05-20 02:58:00,
2013-05-19 22:59:00,61.0,59.0,30.14,NE,45,6.0,7.0,93,-99.99,,,0.00,0.00,VWS V14.01,2013-05-20 02:59:00,
2013-05-19 23:00:00,62.0,59.7,30.15,NE,45,4.0,7.0,92,-99.99,,,0.00,0.00,VWS V14.01,2013-05-20 03:00:00,
2013-05-19 23:01:00,61.0,59.0,30.14,NE,45,6.0,7.0,93,-99.99,,,0.00,0.00,VWS V14.01,2013-05-20 03:01:00,
2013-05-19 23:05:00,62.0,59.7,30.15,NNE,22,10.0,12.0,92,-99.99,,,0.00,0.00,VWS V14.01,2013-05-20 03:05:00,
2013-05-19 23:10:00,62.0,59.7,30.15,ENE,68,6.0,9.0,92,-99.99,,,0.00,0.00,VWS V14.01,2013-05-20 03:10:00,
2013-05-19 23:15:00,62.0,59.7,30.15,ENE,68,6.0,10.0,92,-99.99,,,0.00,0.00,VWS V14.01,2013-05-20 03:15:00,
2013-05-19 23:20:00,62.0,59.7,30.15,NNE,22,4.0,7.0,92,-99.99,,,0.00,0.00,VWS V14.01,2013-05-20 03:20:00,
2013-05-19 23:25:00,62.0,59.7,30.15,NE,45,6.0,7.0,92,-99.99,,,0.00,0.00,VWS V14.01,2013-05-20 03:25:00,
2013-05-19 23:30:00,62.0,59.7,30.15,NE,45,6.0,9.0,92,-99.99,,,0.00,0.00,VWS V14.01,2013-05-20 03:30:00,
2013-05-19 23:35:00,62.0,59.7,30.15,ENE,68,4.0,9.0,92,-99.99,,,0.00,0.00,VWS V14.01,2013-05-20 03:35:00,
2013-05-19 23:40:00,62.0,59.7,30.14,NE,45,6.0,7.0,92,-99.99,,,0.00,0.00,VWS V14.01,2013-05-20 03:40:00,
2013-05-19 23:45:00,62.0,59.7,30.14,NNE,22,5.0,8.0,92,-99.99,,,0.00,0.00,VWS V14.01,2013-05-20 03:45:00,
2013-05-19 23:50:00,62.0,59.7,30.14,NE,45,5.0,5.0,92,-99.99,,,0.00,0.00,VWS V14.01,2013-05-20 03:50:00,
2013-05-19 23:55:00,62.0,60.0,30.14,NNE,22,4.0,6.0,93,-99.99,,,0.00,0.00,VWS V14.01,2013-05-20 03:55:00,